Station History


Daily Summary for March 15, 2012 Units:  English    Metric   Both
« Previous Day
Next Day »
Daily Weekly Monthly Yearly Custom
  High: Low: Average:
Temperature: 76.4 °F 48.0 °F 61 °F
Dew Point: 54.4 °F 43.6 °F 49 °F
Humidity: 92% 40% 67%
Wind Speed: 6.9mph 0.0mph 2.5mph
Wind Gust: 6.9mph - -
Wind- - WSW
Pressure: 30.14 in 30.00 in -
Precipitation: 0.00 in    
Historical Graphs
 
 
Tabular Data for March 15, 2012
Time Temperature Dew Point Pressure Wind Wind Speed Wind Gust Humidity Rainfall Rate (Hourly)
00:04 54.6 °F 45.8 °F 30.12 in Calm     72% 0.00 in
00:09 54.4 °F 45.6 °F 30.11 in Calm     72% 0.00 in
00:14 54.1 °F 45.3 °F 30.12 in Calm     72% 0.00 in
00:19 53.7 °F 45.2 °F 30.11 in Calm     73% 0.00 in
00:24 53.5 °F 45.4 °F 30.11 in Calm     74% 0.00 in
00:29 53.2 °F 45.1 °F 30.11 in Calm     74% 0.00 in
00:34 53.3 °F 45.6 °F 30.11 in Calm     75% 0.00 in
00:39 53.3 °F 45.6 °F 30.11 in Calm     75% 0.00 in
00:44 53.3 °F 45.2 °F 30.11 in Calm     74% 0.00 in
00:49 53.3 °F 45.2 °F 30.10 in Calm     74% 0.00 in
00:54 53.2 °F 45.1 °F 30.10 in Calm     74% 0.00 in
00:59 53.1 °F 45.0 °F 30.10 in Calm     74% 0.00 in
01:04 53.0 °F 44.9 °F 30.10 in Calm     74% 0.00 in
01:09 52.9 °F 45.2 °F 30.10 in Calm     75% 0.00 in
01:14 52.7 °F 45.0 °F 30.10 in Calm     75% 0.00 in
01:19 52.6 °F 44.9 °F 30.10 in Calm     75% 0.00 in
01:24 52.5 °F 45.2 °F 30.10 in Calm     76% 0.00 in
01:29 52.9 °F 45.2 °F 30.10 in Calm     75% 0.00 in
01:34 52.8 °F 45.1 °F 30.10 in Calm     75% 0.00 in
01:39 52.6 °F 44.9 °F 30.10 in Calm     75% 0.00 in
01:44 52.2 °F 44.5 °F 30.10 in Calm     75% 0.00 in
01:49 51.9 °F 44.9 °F 30.10 in Calm     77% 0.00 in
01:54 51.8 °F 45.5 °F 30.10 in Calm     79% 0.00 in
01:59 51.6 °F 45.0 °F 30.10 in Calm     78% 0.00 in
02:04 51.3 °F 44.7 °F 30.10 in Calm     78% 0.00 in
02:09 51.1 °F 44.5 °F 30.10 in Calm     78% 0.00 in
02:14 51.0 °F 45.0 °F 30.10 in Calm     80% 0.00 in
02:19 50.9 °F 44.6 °F 30.10 in Calm     79% 0.00 in
02:24 50.8 °F 44.9 °F 30.10 in Calm     80% 0.00 in
02:29 50.7 °F 44.4 °F 30.10 in Calm     79% 0.00 in
02:34 50.5 °F 44.2 °F 30.10 in Calm     79% 0.00 in
02:39 50.3 °F 44.0 °F 30.10 in Calm     79% 0.00 in
02:44 50.2 °F 44.6 °F 30.10 in Calm     81% 0.00 in
02:49 50.2 °F 44.6 °F 30.11 in Calm     81% 0.00 in
02:54 50.1 °F 44.5 °F 30.11 in Calm     81% 0.00 in
02:59 50.1 °F 44.5 °F 30.11 in Calm     81% 0.00 in
03:04 49.9 °F 44.3 °F 30.11 in Calm     81% 0.00 in
03:09 49.8 °F 44.2 °F 30.11 in Calm     81% 0.00 in
03:15 49.8 °F 44.5 °F 30.11 in Calm     82% 0.00 in
03:20 49.8 °F 44.2 °F 30.11 in Calm     81% 0.00 in
03:25 49.6 °F 44.0 °F 30.11 in Calm     81% 0.00 in
03:30 49.4 °F 43.8 °F 30.11 in Calm     81% 0.00 in
03:35 49.1 °F 43.8 °F 30.10 in Calm     82% 0.00 in
03:40 48.9 °F 43.6 °F 30.11 in Calm     82% 0.00 in
03:45 48.9 °F 44.0 °F 30.10 in Calm     83% 0.00 in
03:50 48.9 °F 44.3 °F 30.10 in Calm     84% 0.00 in
03:55 49.0 °F 44.4 °F 30.10 in Calm     84% 0.00 in
04:00 49.2 °F 44.6 °F 30.10 in Calm     84% 0.00 in
04:05 49.4 °F 44.8 °F 30.10 in Calm     84% 0.00 in
04:10 49.7 °F 45.1 °F 30.10 in Calm     84% 0.00 in
04:15 49.9 °F 45.6 °F 30.10 in Calm     85% 0.00 in
04:20 50.1 °F 45.8 °F 30.10 in Calm     85% 0.00 in
04:25 50.3 °F 46.6 °F 30.10 in Calm     87% 0.00 in
04:30 50.5 °F 46.8 °F 30.10 in SSW 1.1 mph 1.1 mph 87% 0.00 in
04:35 50.7 °F 46.7 °F 30.10 in Calm     86% 0.00 in
04:40 50.7 °F 46.4 °F 30.10 in SE 1.0 mph 1.0 mph 85% 0.00 in
04:45 50.7 °F 46.0 °F 30.10 in Calm     84% 0.00 in
04:50 50.7 °F 46.0 °F 30.10 in Calm     84% 0.00 in
04:55 50.7 °F 46.4 °F 30.10 in Calm     85% 0.00 in
05:00 50.7 °F 46.4 °F 30.10 in Calm     85% 0.00 in
05:05 50.8 °F 46.5 °F 30.09 in Calm     85% 0.00 in
05:10 50.8 °F 46.5 °F 30.09 in Calm     85% 0.00 in
05:15 50.8 °F 46.8 °F 30.09 in Calm     86% 0.00 in
05:20 50.7 °F 46.7 °F 30.09 in Calm     86% 0.00 in
05:25 50.7 °F 46.7 °F 30.09 in Calm     86% 0.00 in
05:30 50.6 °F 46.6 °F 30.09 in Calm     86% 0.00 in
05:35 50.5 °F 46.5 °F 30.10 in Calm     86% 0.00 in
05:40 50.3 °F 46.3 °F 30.10 in Calm     86% 0.00 in
05:45 50.1 °F 46.1 °F 30.10 in Calm     86% 0.00 in
05:50 49.9 °F 45.9 °F 30.10 in Calm     86% 0.00 in
05:55 49.7 °F 46.3 °F 30.10 in Calm     88% 0.00 in
06:00 49.6 °F 46.2 °F 30.10 in Calm     88% 0.00 in
06:05 49.5 °F 46.1 °F 30.10 in Calm     88% 0.00 in
06:10 49.2 °F 46.1 °F 30.10 in Calm     89% 0.00 in
06:15 49.1 °F 46.0 °F 30.10 in Calm     89% 0.00 in
06:20 49.1 °F 46.3 °F 30.10 in Calm     90% 0.00 in
06:25 49.0 °F 45.9 °F 30.11 in Calm     89% 0.00 in
06:30 48.9 °F 46.1 °F 30.11 in Calm     90% 0.00 in
06:35 48.8 °F 46.0 °F 30.11 in Calm     90% 0.00 in
06:40 48.7 °F 45.9 °F 30.11 in Calm     90% 0.00 in
06:45 48.7 °F 45.9 °F 30.11 in Calm     90% 0.00 in
06:50 48.6 °F 45.8 °F 30.11 in Calm     90% 0.00 in
06:55 48.5 °F 46.0 °F 30.11 in Calm     91% 0.00 in
07:00 48.5 °F 46.0 °F 30.11 in Calm     91% 0.00 in
07:05 48.4 °F 45.9 °F 30.11 in Calm     91% 0.00 in
07:10 48.3 °F 45.8 °F 30.11 in Calm     91% 0.00 in
07:15 48.3 °F 45.8 °F 30.12 in Calm     91% 0.00 in
07:20 48.1 °F 45.6 °F 30.12 in Calm     91% 0.00 in
07:25 48.0 °F 45.5 °F 30.12 in Calm     91% 0.00 in
07:30 48.0 °F 45.5 °F 30.13 in Calm     91% 0.00 in
07:35 48.0 °F 45.5 °F 30.13 in Calm     91% 0.00 in
07:36 48.1 °F 45.9 °F 30.13 in Calm     92% 0.00 in
07:41 48.4 °F 46.2 °F 30.13 in Calm     92% 0.00 in
07:46 48.6 °F 46.1 °F 30.13 in Calm     91% 0.00 in
07:51 48.7 °F 46.2 °F 30.13 in Calm     91% 0.00 in
07:56 48.9 °F 46.4 °F 30.14 in Calm     91% 0.00 in
08:01 49.1 °F 46.6 °F 30.13 in Calm     91% 0.00 in
08:06 49.4 °F 46.9 °F 30.13 in Calm     91% 0.00 in
08:11 49.8 °F 47.3 °F 30.14 in Calm     91% 0.00 in
08:16 50.2 °F 47.7 °F 30.14 in Calm     91% 0.00 in
08:21 50.7 °F 47.9 °F 30.14 in Calm     90% 0.00 in
08:26 51.3 °F 48.5 °F 30.14 in Calm     90% 0.00 in
08:31 52.0 °F 48.9 °F 30.14 in Calm     89% 0.00 in
08:36 52.7 °F 49.2 °F 30.14 in Calm     88% 0.00 in
08:41 53.4 °F 49.6 °F 30.14 in SSE 1.1 mph 1.1 mph 87% 0.00 in
08:46 53.9 °F 49.8 °F 30.14 in Calm     86% 0.00 in
08:51 54.5 °F 50.4 °F 30.14 in SE 1.1 mph 1.1 mph 86% 0.00 in
08:56 55.1 °F 50.7 °F 30.14 in Calm     85% 0.00 in
09:01 55.7 °F 50.9 °F 30.14 in Calm     84% 0.00 in
09:06 56.3 °F 51.2 °F 30.14 in Calm     83% 0.00 in
09:11 56.8 °F 51.0 °F 30.14 in SE 1.1 mph   81% 0.00 in
09:16 57.3 °F 51.2 °F 30.14 in East 1.1 mph   80% 0.00 in
09:21 57.7 °F 51.2 °F 30.14 in East 1.1 mph 1.1 mph 79% 0.00 in
09:26 58.1 °F 51.6 °F 30.14 in SW 1.1 mph   79% 0.00 in
09:31 58.6 °F 51.8 °F 30.14 in ESE 1.1 mph 1.1 mph 78% 0.00 in
09:36 58.9 °F 52.1 °F 30.14 in SW 1.1 mph 1.1 mph 78% 0.00 in
09:41 59.1 °F 51.9 °F 30.14 in SW 2.3 mph 2.3 mph 77% 0.00 in
09:46 59.3 °F 52.4 °F 30.14 in SSW 1.1 mph 1.1 mph 78% 0.00 in
09:51 59.6 °F 52.4 °F 30.14 in SW 1.1 mph 1.1 mph 77% 0.00 in
09:56 60.1 °F 52.5 °F 30.14 in WSW 1.0 mph   76% 0.00 in
10:01 60.3 °F 52.7 °F 30.14 in SW 1.1 mph 1.1 mph 76% 0.00 in
10:06 60.4 °F 52.4 °F 30.14 in SW 1.1 mph 1.1 mph 75% 0.00 in
10:11 60.4 °F 52.4 °F 30.14 in SW 2.3 mph 2.3 mph 75% 0.00 in
10:16 60.8 °F 52.8 °F 30.14 in SW 1.1 mph   75% 0.00 in
10:21 61.1 °F 53.1 °F 30.14 in SW 2.3 mph 2.3 mph 75% 0.00 in
10:26 61.5 °F 53.1 °F 30.14 in SSW 1.1 mph 1.1 mph 74% 0.00 in
10:31 61.8 °F 52.7 °F 30.14 in SW 1.1 mph 1.1 mph 72% 0.00 in
10:36 61.9 °F 52.8 °F 30.14 in SW 2.3 mph 2.3 mph 72% 0.00 in
10:41 62.1 °F 52.6 °F 30.13 in SSW 1.1 mph 1.1 mph 71% 0.00 in
10:46 62.4 °F 53.3 °F 30.13 in SW 1.1 mph   72% 0.00 in
10:51 62.9 °F 53.4 °F 30.13 in SSW 1.1 mph 1.1 mph 71% 0.00 in
10:56 63.2 °F 52.9 °F 30.13 in SSW 2.3 mph 2.3 mph 69% 0.00 in
11:01 63.5 °F 52.7 °F 30.13 in SW 3.5 mph 3.5 mph 68% 0.00 in
11:06 63.6 °F 53.2 °F 30.13 in SSE 1.1 mph 1.1 mph 69% 0.00 in
11:11 64.2 °F 53.4 °F 30.13 in SW 1.1 mph   68% 0.00 in
11:16 64.4 °F 52.8 °F 30.13 in SW 1.1 mph 1.1 mph 66% 0.00 in
11:21 64.7 °F 53.1 °F 30.13 in SSW 2.3 mph 2.3 mph 66% 0.00 in
11:26 65.4 °F 52.9 °F 30.13 in WNW 2.3 mph 2.3 mph 64% 0.00 in
11:31 65.9 °F 53.8 °F 30.13 in SSW 1.1 mph 1.1 mph 65% 0.00 in
11:36 66.6 °F 53.2 °F 30.12 in SW 2.3 mph 2.3 mph 62% 0.00 in
11:41 67.1 °F 53.6 °F 30.12 in WNW 1.1 mph 1.1 mph 62% 0.00 in
11:46 67.8 °F 53.9 °F 30.12 in SW 2.3 mph 2.3 mph 61% 0.00 in
11:51 68.5 °F 53.1 °F 30.12 in SSW 2.3 mph 2.3 mph 58% 0.00 in
11:56 68.4 °F 54.4 °F 30.11 in Calm     61% 0.00 in
12:01 69.0 °F 53.6 °F 30.11 in WSW 1.1 mph 1.1 mph 58% 0.00 in
12:06 69.6 °F 53.7 °F 30.11 in SW 1.1 mph 1.1 mph 57% 0.00 in
12:11 70.1 °F 53.7 °F 30.11 in SSW 2.3 mph 2.3 mph 56% 0.00 in
12:16 70.3 °F 53.4 °F 30.11 in WSW 1.1 mph 1.1 mph 55% 0.00 in
12:21 70.7 °F 52.2 °F 30.11 in WSW 1.1 mph 1.1 mph 52% 0.00 in
12:26 70.8 °F 53.3 °F 30.10 in SW 1.1 mph 1.1 mph 54% 0.00 in
12:31 71.0 °F 53.5 °F 30.10 in WNW 1.1 mph 1.1 mph 54% 0.00 in
12:36 71.7 °F 53.7 °F 30.10 in WSW 2.3 mph 2.3 mph 53% 0.00 in
12:41 72.3 °F 53.2 °F 30.10 in WNW 3.5 mph 3.5 mph 51% 0.00 in
12:46 72.4 °F 51.6 °F 30.10 in West 1.1 mph 1.1 mph 48% 0.00 in
12:51 72.7 °F 50.7 °F 30.10 in West 2.3 mph 2.3 mph 46% 0.00 in
12:56 73.1 °F 51.1 °F 30.09 in SW 1.1 mph 1.1 mph 46% 0.00 in
13:01 73.7 °F 52.8 °F 30.09 in Calm   0.3 mph 48% 0.00 in
13:06 73.7 °F 51.6 °F 30.08 in SSW 3.5 mph 3.5 mph 46% 0.00 in
13:11 73.6 °F 51.5 °F 30.08 in West 4.6 mph 4.6 mph 46% 0.00 in
13:16 74.3 °F 51.0 °F 30.08 in WNW 2.3 mph 2.3 mph 44% 0.00 in
13:21 74.0 °F 50.7 °F 30.08 in WNW 3.5 mph 3.5 mph 44% 0.00 in
13:26 73.5 °F 50.2 °F 30.08 in North 2.0 mph 2.0 mph 44% 0.00 in
13:31 72.8 °F 50.2 °F 30.08 in West 1.1 mph 1.1 mph 45% 0.00 in
13:36 73.1 °F 52.2 °F 30.07 in SW 1.1 mph 1.1 mph 48% 0.00 in
13:41 73.8 °F 52.3 °F 30.07 in North 3.5 mph 3.5 mph 47% 0.00 in
13:46 73.5 °F 52.6 °F 30.07 in NNE 1.1 mph 1.1 mph 48% 0.00 in
13:51 73.7 °F 51.6 °F 30.06 in East 2.3 mph 2.3 mph 46% 0.00 in
13:56 74.3 °F 52.2 °F 30.06 in WNW 3.5 mph 3.5 mph 46% 0.00 in
14:01 74.3 °F 51.6 °F 30.06 in East 2.0 mph 2.0 mph 45% 0.00 in
14:06 74.9 °F 52.7 °F 30.06 in SSE 1.1 mph   46% 0.00 in
14:11 75.9 °F 52.4 °F 30.05 in NNW 2.3 mph   44% 0.00 in
14:16 76.3 °F 51.5 °F 30.05 in West 2.3 mph 2.3 mph 42% 0.00 in
14:21 76.0 °F 51.2 °F 30.05 in SSW 3.5 mph 3.5 mph 42% 0.00 in
14:26 76.3 °F 51.5 °F 30.05 in WSW 1.1 mph 1.1 mph 42% 0.00 in
14:31 76.4 °F 52.2 °F 30.05 in WNW 3.5 mph 3.9 mph 43% 0.00 in
14:36 76.2 °F 52.7 °F 30.05 in NNW 3.0 mph 3.0 mph 44% 0.00 in
14:41 76.2 °F 52.1 °F 30.05 in WNW 4.6 mph 4.6 mph 43% 0.00 in
14:46 76.0 °F 51.9 °F 30.04 in WNW 1.1 mph 1.1 mph 43% 0.00 in
14:51 75.8 °F 51.7 °F 30.04 in WNW 3.5 mph 3.5 mph 43% 0.00 in
14:56 75.7 °F 52.2 °F 30.04 in NNW 5.0 mph 5.0 mph 44% 0.00 in
15:02 75.4 °F 51.3 °F 30.04 in NW 3.5 mph 3.5 mph 43% 0.00 in
15:07 75.5 °F 50.8 °F 30.04 in WSW 4.0 mph 4.0 mph 42% 0.00 in
15:12 75.3 °F 50.0 °F 30.04 in SSW 4.6 mph 4.6 mph 41% 0.00 in
15:17 75.6 °F 51.5 °F 30.03 in South 4.6 mph 4.6 mph 43% 0.00 in
15:22 75.5 °F 50.8 °F 30.03 in NW 3.5 mph 3.5 mph 42% 0.00 in
15:27 76.0 °F 51.2 °F 30.03 in NNW 3.5 mph 3.5 mph 42% 0.00 in
15:32 75.5 °F 50.1 °F 30.03 in NNW 4.6 mph 4.6 mph 41% 0.00 in
15:37 75.2 °F 49.9 °F 30.03 in NNW 3.0 mph 3.0 mph 41% 0.00 in
15:42 75.3 °F 50.6 °F 30.03 in NNE 2.3 mph 2.3 mph 42% 0.00 in
15:47 75.0 °F 50.3 °F 30.03 in NNW 3.5 mph 3.5 mph 42% 0.00 in
15:52 74.5 °F 50.5 °F 30.02 in West 5.8 mph 5.8 mph 43% 0.00 in
15:57 74.1 °F 50.2 °F 30.02 in WNW 1.1 mph 1.1 mph 43% 0.00 in
16:02 74.4 °F 50.4 °F 30.02 in WNW 3.5 mph 3.5 mph 43% 0.00 in
16:07 74.7 °F 50.1 °F 30.02 in NNW 5.8 mph 5.8 mph 42% 0.00 in
16:12 75.0 °F 50.3 °F 30.03 in NNW 3.5 mph 3.5 mph 42% 0.00 in
16:17 75.3 °F 51.3 °F 30.03 in NW 4.6 mph 4.6 mph 43% 0.00 in
16:22 75.0 °F 50.3 °F 30.03 in WSW 3.5 mph 3.5 mph 42% 0.00 in
16:27 75.3 °F 50.6 °F 30.02 in North 6.9 mph 6.9 mph 42% 0.00 in
16:32 75.8 °F 51.1 °F 30.02 in WNW 3.5 mph 3.5 mph 42% 0.00 in
16:37 75.5 °F 50.1 °F 30.02 in NW 5.0 mph 5.0 mph 41% 0.00 in
16:42 75.4 °F 50.1 °F 30.02 in ENE 5.8 mph 5.8 mph 41% 0.00 in
16:47 75.5 °F 50.1 °F 30.02 in North 3.5 mph 3.5 mph 41% 0.00 in
16:52 75.8 °F 49.8 °F 30.02 in North 3.5 mph 3.5 mph 40% 0.00 in
16:57 75.5 °F 49.5 °F 30.02 in NNW 3.5 mph 3.5 mph 40% 0.00 in
17:02 75.1 °F 49.1 °F 30.02 in WNW 1.1 mph 1.1 mph 40% 0.00 in
17:07 74.7 °F 49.4 °F 30.02 in West 3.5 mph 3.5 mph 41% 0.00 in
17:12 74.1 °F 49.5 °F 30.02 in NNW 2.3 mph 2.3 mph 42% 0.00 in
17:17 73.7 °F 49.2 °F 30.02 in NNE 3.5 mph 3.5 mph 42% 0.00 in
17:22 73.1 °F 49.3 °F 30.02 in NNW 5.8 mph 5.8 mph 43% 0.00 in
17:27 72.7 °F 49.5 °F 30.02 in North 2.3 mph 2.3 mph 44% 0.00 in
17:32 72.7 °F 50.1 °F 30.02 in NNW 2.3 mph 2.3 mph 45% 0.00 in
17:37 73.0 °F 50.4 °F 30.02 in West 1.1 mph 1.1 mph 45% 0.00 in
17:42 73.2 °F 50.0 °F 30.02 in NNW 3.5 mph 3.5 mph 44% 0.00 in
17:47 73.5 °F 50.2 °F 30.02 in NW 4.0 mph 4.0 mph 44% 0.00 in
17:52 73.5 °F 50.2 °F 30.02 in NW 3.5 mph 3.5 mph 44% 0.00 in
17:57 73.4 °F 50.2 °F 30.02 in WNW 4.6 mph 4.6 mph 44% 0.00 in
18:02 73.1 °F 50.5 °F 30.02 in WNW 3.5 mph 3.5 mph 45% 0.00 in
18:07 72.8 °F 50.2 °F 30.02 in North 1.1 mph 1.1 mph 45% 0.00 in
18:12 72.6 °F 50.0 °F 30.02 in North 3.5 mph 3.5 mph 45% 0.00 in
18:17 72.3 °F 50.4 °F 30.02 in NE 2.3 mph 2.3 mph 46% 0.00 in
18:22 71.9 °F 50.6 °F 30.02 in NNE 2.3 mph 2.3 mph 47% 0.00 in
18:27 71.4 °F 50.1 °F 30.02 in West 2.3 mph 2.3 mph 47% 0.00 in
18:32 71.0 °F 50.3 °F 30.02 in NW 3.5 mph 3.5 mph 48% 0.00 in
18:37 70.6 °F 50.5 °F 30.02 in NNW 1.1 mph 1.1 mph 49% 0.00 in
18:42 70.3 °F 50.2 °F 30.02 in NNW 1.1 mph   49% 0.00 in
18:47 70.1 °F 50.0 °F 30.02 in NNW 1.1 mph 1.1 mph 49% 0.00 in
18:52 69.9 °F 49.9 °F 30.02 in NW 1.1 mph 1.1 mph 49% 0.00 in
18:57 69.6 °F 50.1 °F 30.02 in Calm     50% 0.00 in
19:02 69.3 °F 50.4 °F 30.02 in Calm     51% 0.00 in
19:07 68.8 °F 49.9 °F 30.02 in Calm     51% 0.00 in
19:12 68.5 °F 50.2 °F 30.02 in Calm     52% 0.00 in
19:17 68.1 °F 49.8 °F 30.02 in Calm     52% 0.00 in
19:22 67.8 °F 49.5 °F 30.02 in Calm     52% 0.00 in
19:27 67.4 °F 49.7 °F 30.02 in Calm     53% 0.00 in
19:32 67.0 °F 50.3 °F 30.02 in Calm     55% 0.00 in
19:37 66.6 °F 49.9 °F 30.01 in Calm     55% 0.00 in
19:42 66.1 °F 49.9 °F 30.01 in Calm     56% 0.00 in
19:47 65.6 °F 50.0 °F 30.01 in Calm     57% 0.00 in
19:52 65.3 °F 49.7 °F 30.01 in Calm     57% 0.00 in
19:57 65.0 °F 49.9 °F 30.01 in Calm     58% 0.00 in
20:02 64.7 °F 50.0 °F 30.01 in Calm     59% 0.00 in
20:07 64.4 °F 49.8 °F 30.01 in Calm     59% 0.00 in
20:12 64.1 °F 49.5 °F 30.00 in Calm     59% 0.00 in
20:17 63.7 °F 50.0 °F 30.00 in Calm     61% 0.00 in
20:22 63.3 °F 49.6 °F 30.00 in Calm     61% 0.00 in
20:27 62.9 °F 49.2 °F 30.00 in Calm     61% 0.00 in
20:32 62.7 °F 49.9 °F 30.00 in Calm     63% 0.00 in
20:37 62.5 °F 49.7 °F 30.01 in Calm     63% 0.00 in
20:42 62.2 °F 49.9 °F 30.01 in Calm     64% 0.00 in
20:47 61.9 °F 49.6 °F 30.01 in Calm     64% 0.00 in
20:52 61.4 °F 49.5 °F 30.01 in Calm     65% 0.00 in
20:57 61.1 °F 49.7 °F 30.01 in Calm     66% 0.00 in
21:00 61.1 °F 50.1 °F 30.01 in Calm     67% 0.00 in
21:05 61.3 °F 49.8 °F 30.01 in Calm     66% 0.00 in
21:10 61.6 °F 50.1 °F 30.01 in Calm     66% 0.00 in
21:15 61.4 °F 49.5 °F 30.02 in Calm     65% 0.00 in
21:20 61.1 °F 49.7 °F 30.02 in Calm     66% 0.00 in
21:25 60.9 °F 49.5 °F 30.02 in Calm     66% 0.00 in
21:31 60.6 °F 49.2 °F 30.02 in Calm     66% 0.00 in
21:36 60.3 °F 49.7 °F 30.02 in Calm     68% 0.00 in
21:41 59.9 °F 49.7 °F 30.02 in Calm     69% 0.00 in
21:46 59.6 °F 49.4 °F 30.02 in Calm     69% 0.00 in
21:51 59.3 °F 49.1 °F 30.02 in Calm     69% 0.00 in
21:56 59.1 °F 49.3 °F 30.03 in Calm     70% 0.00 in
22:01 58.9 °F 49.5 °F 30.02 in Calm     71% 0.00 in
22:06 58.6 °F 49.6 °F 30.02 in Calm     72% 0.00 in
22:11 58.3 °F 49.3 °F 30.02 in Calm     72% 0.00 in
22:16 58.1 °F 49.5 °F 30.02 in Calm     73% 0.00 in
22:21 57.9 °F 49.3 °F 30.03 in Calm     73% 0.00 in
22:26 58.0 °F 49.4 °F 30.03 in Calm     73% 0.00 in
22:31 57.8 °F 49.6 °F 30.02 in Calm     74% 0.00 in
22:36 57.7 °F 49.5 °F 30.02 in Calm     74% 0.00 in
22:41 57.6 °F 49.4 °F 30.03 in Calm     74% 0.00 in
22:46 57.6 °F 49.7 °F 30.03 in Calm     75% 0.00 in
22:51 57.7 °F 49.5 °F 30.03 in Calm     74% 0.00 in
22:56 57.6 °F 49.4 °F 30.03 in Calm     74% 0.00 in
23:01 57.4 °F 49.5 °F 30.03 in Calm     75% 0.00 in
23:06 57.2 °F 49.3 °F 30.03 in Calm     75% 0.00 in
23:11 57.1 °F 49.6 °F 30.03 in Calm     76% 0.00 in
23:16 57.0 °F 49.5 °F 30.03 in Calm     76% 0.00 in
23:21 56.8 °F 49.3 °F 30.03 in Calm     76% 0.00 in
23:26 56.6 °F 49.1 °F 30.03 in Calm     76% 0.00 in
23:31 56.8 °F 49.7 °F 30.03 in NNW 2.3 mph   77% 0.00 in
23:37 57.2 °F 50.1 °F 30.03 in Calm     77% 0.00 in
23:42 57.3 °F 50.5 °F 30.02 in Calm     78% 0.00 in
23:47 57.3 °F 50.1 °F 30.02 in Calm     77% 0.00 in
23:52 57.1 °F 50.0 °F 30.02 in Calm     77% 0.00 in
23:57 56.8 °F 49.7 °F 30.03 in Calm     77% 0.00 in
Compliments of Weather Underground